Danville, IN

5:18 PM EST on November 13, 2019 (GMT -0500)
Vermilion County

Weather History for KDNV - October, 2019

Change the Weather History Date:

Tuesday, October 22, 2019

  Actual Average (KLAF) Record (KLAF)
Temperature  
Mean Temperature 50 °F -  
Max Temperature 57 °F 62 °F 79 °F (1975)
Min Temperature 43 °F 40 °F 23 °F (1976)
Degree Days  
Heating Degree Days 14    
Moisture  
Dew Point 39 °F    
Average Humidity 65    
Maximum Humidity 80    
Minimum Humidity 50    
Precipitation  
Precipitation 0.00 in - - ()
Sea Level Pressure  
Sea Level Pressure 29.75 in    
Wind  
Wind Speed 14 mph ()    
Max Wind Speed 24 mph    
Max Gust Speed 36 mph    
Visibility 10.0 miles    
Events      
Averages and records for this station are not official NWS values.
T = Trace of Precipitation, MM = Missing Value Source: Averaged Metar Reports

Daily Weather History Graph

Daily Weather History Graph

Search for Another Location

Airport or City:

Astronomy

Oct. 22, 2019 Rise Set
Actual Time 7:08 AM CDT 6:00 PM CDT
Civil Twilight 6:40 AM CDT 6:28 PM CDT
Nautical Twilight 6:09 AM CDT 7:00 PM CDT
Astronomical Twilight 5:37 AM CDT 7:31 PM CDT
Moon 12:17 AM CDT (10/22) 3:10 PM CDT (10/22)
Length of Visible Light 11h 47m
Length of Day
10h 52m
Last Quarter, 37% of the Moon is Illuminated
Oct 22
Last Quarter
Oct 27
New
Nov 4
First Quarter
Nov 12
Full
Nov 19
Last Quarter

Hourly Weather History & Observations

Time (CDT) Temp. Windchill Dew Point Humidity Pressure Visibility Wind Dir Wind Speed Gust Speed Precip Events Conditions
12:35 AM 50.9 °F - 41.9 °F 71% 29.68 in 10.0 mi SSW 13.8 mph - N/A   Clear
1:15 AM 51.1 °F - 41.9 °F 71% 29.67 in 10.0 mi SSW 12.7 mph 20.7 mph N/A   Clear
1:35 AM 50.9 °F - 41.5 °F 70% 29.67 in 10.0 mi SSW 15.0 mph 20.7 mph N/A   Clear
1:55 AM 50.7 °F - 41.5 °F 71% 29.66 in 10.0 mi SSW 15.0 mph 19.6 mph N/A   Clear
2:15 AM 50.2 °F - 41.7 °F 73% 29.65 in 10.0 mi SSW 13.8 mph - N/A   Clear
2:35 AM 50.2 °F - 41.4 °F 72% 29.65 in 10.0 mi SSW 13.8 mph - N/A   Clear
2:55 AM 50.2 °F - 41.2 °F 71% 29.64 in 10.0 mi SSW 13.8 mph - N/A   Clear
3:15 AM 50.4 °F - 41.2 °F 71% 29.64 in 10.0 mi SSW 16.1 mph - N/A   Clear
3:35 AM 50.0 °F - 41.2 °F 72% 29.64 in 10.0 mi SSW 12.7 mph - N/A   Clear
3:55 AM 49.3 °F - 41.4 °F 74% 29.65 in 10.0 mi SSW 13.8 mph - N/A   Clear
4:15 AM 48.7 °F - 41.2 °F 75% 29.65 in 10.0 mi SSW 11.5 mph - N/A   Clear
4:35 AM 48.2 °F - 41.4 °F 77% 29.65 in 10.0 mi SW 15.0 mph 19.6 mph N/A   Clear
4:55 AM 48.6 °F - 41.0 °F 75% 29.66 in 10.0 mi SSW 12.7 mph 20.7 mph N/A   Clear
5:15 AM 48.0 °F - 41.0 °F 77% 29.66 in 10.0 mi SW 15.0 mph 20.7 mph N/A   Clear
5:35 AM 48.0 °F - 40.6 °F 76% 29.67 in 10.0 mi SSW 12.7 mph 20.7 mph N/A   Clear
5:55 AM 47.3 °F - 40.8 °F 78% 29.67 in 10.0 mi SSW 16.1 mph 19.6 mph N/A   Clear
6:15 AM 46.8 °F - 40.8 °F 80% 29.68 in 10.0 mi SSW 12.7 mph - N/A   Clear
6:35 AM 47.3 °F - 41.0 °F 79% 29.68 in 10.0 mi SSW 13.8 mph 18.4 mph N/A   Mostly Cloudy
6:55 AM 47.7 °F - 41.2 °F 78% 29.67 in 10.0 mi SSW 15.0 mph 23.0 mph N/A   Overcast
7:15 AM 47.3 °F - 41.0 °F 79% 29.67 in 10.0 mi SSW 12.7 mph - N/A   Overcast
7:35 AM 47.5 °F - 41.2 °F 79% 29.68 in 10.0 mi SSW 13.8 mph - N/A   Mostly Cloudy
7:55 AM 48.6 °F - 41.9 °F 78% 29.68 in 10.0 mi SW 15.0 mph 23.0 mph N/A   Mostly Cloudy
8:15 AM 49.6 °F - 41.5 °F 74% 29.69 in 10.0 mi SW 19.6 mph 25.3 mph N/A   Overcast
8:35 AM 50.2 °F - 41.5 °F 72% 29.70 in 10.0 mi SSW 17.3 mph 25.3 mph N/A   Overcast
8:55 AM 50.2 °F - 41.9 °F 73% 29.70 in 10.0 mi SW 20.7 mph 26.5 mph N/A   Overcast
9:15 AM 51.1 °F - 41.9 °F 71% 29.71 in 10.0 mi SW 23.0 mph 26.5 mph N/A   Overcast
9:35 AM 52.0 °F - 41.7 °F 68% 29.71 in 10.0 mi SW 21.9 mph 27.6 mph N/A   Overcast
9:55 AM 52.7 °F - 41.5 °F 66% 29.71 in 10.0 mi SW 23.0 mph 27.6 mph N/A   Overcast
10:15 AM 52.2 °F - 41.0 °F 66% 29.72 in 10.0 mi WSW 19.6 mph 29.9 mph N/A   Overcast
10:35 AM 52.2 °F - 40.6 °F 65% 29.73 in 10.0 mi WSW 24.2 mph 32.2 mph N/A   Overcast
10:55 AM 53.1 °F - 40.5 °F 62% 29.73 in 10.0 mi WSW 20.7 mph 35.7 mph N/A   Mostly Cloudy
11:15 AM 54.3 °F - 40.6 °F 60% 29.73 in 10.0 mi WSW 23.0 mph 33.4 mph N/A   Overcast
11:35 AM 53.1 °F - 39.7 °F 61% 29.74 in 10.0 mi WSW 18.4 mph 28.8 mph N/A   Overcast
11:55 AM 53.1 °F - 40.1 °F 61% 29.76 in 10.0 mi SW 23.0 mph 28.8 mph N/A   Overcast
12:15 PM 51.8 °F - 40.3 °F 65% 29.77 in 10.0 mi WSW 16.1 mph 34.5 mph N/A   Overcast
12:35 PM 51.8 °F - 39.7 °F 63% 29.76 in 10.0 mi SW 23.0 mph 29.9 mph N/A   Overcast
12:55 PM 51.8 °F - 39.6 °F 63% 29.76 in 10.0 mi SW 19.6 mph 27.6 mph N/A   Overcast
1:15 PM 51.8 °F - 39.2 °F 62% 29.76 in 10.0 mi SW 21.9 mph 28.8 mph N/A   Overcast
1:35 PM 53.6 °F - 40.5 °F 61% 29.76 in 10.0 mi SW 19.6 mph 31.1 mph N/A   Overcast
1:55 PM 54.5 °F - 40.1 °F 58% 29.76 in 10.0 mi WSW 23.0 mph 31.1 mph N/A   Overcast
2:15 PM 54.7 °F - 39.7 °F 57% 29.76 in 10.0 mi WSW 16.1 mph 27.6 mph N/A   Overcast
2:35 PM 54.9 °F - 39.4 °F 56% 29.75 in 10.0 mi WSW 18.4 mph 27.6 mph N/A   Mostly Cloudy
2:55 PM 55.6 °F - 38.5 °F 53% 29.75 in 10.0 mi WSW 20.7 mph 29.9 mph N/A   Mostly Cloudy
3:15 PM 56.3 °F - 38.8 °F 52% 29.76 in 10.0 mi SW 23.0 mph 28.8 mph N/A   Mostly Cloudy
3:35 PM 56.5 °F - 38.5 °F 51% 29.77 in 10.0 mi WSW 16.1 mph 24.2 mph N/A   Mostly Cloudy
3:55 PM 57.0 °F - 38.5 °F 50% 29.77 in 10.0 mi SW 21.9 mph - N/A   Mostly Cloudy
4:15 PM 56.3 °F - 39.2 °F 53% 29.77 in 10.0 mi WSW 18.4 mph - N/A   Overcast
4:35 PM 56.5 °F - 39.0 °F 52% 29.78 in 10.0 mi WSW 13.8 mph 20.7 mph N/A   Overcast
4:55 PM 56.3 °F - 38.8 °F 52% 29.79 in 10.0 mi WSW 13.8 mph 21.9 mph N/A   Overcast
5:15 PM 55.8 °F - 38.7 °F 53% 29.79 in 10.0 mi WSW 16.1 mph 24.2 mph N/A   Overcast
5:35 PM 55.4 °F - 39.0 °F 54% 29.80 in 10.0 mi WSW 15.0 mph 19.6 mph N/A   Overcast
5:55 PM 54.7 °F - 38.7 °F 55% 29.80 in 10.0 mi WSW 16.1 mph 20.7 mph N/A   Mostly Cloudy
6:15 PM 53.8 °F - 39.0 °F 57% 29.82 in 10.0 mi WSW 11.5 mph 18.4 mph N/A   Mostly Cloudy
6:35 PM 53.1 °F - 39.2 °F 59% 29.83 in 10.0 mi WSW 11.5 mph 16.1 mph N/A   Mostly Cloudy
6:55 PM 52.2 °F - 39.2 °F 61% 29.83 in 10.0 mi WSW 11.5 mph - N/A   Scattered Clouds
7:15 PM 51.4 °F - 39.0 °F 63% 29.84 in 10.0 mi WSW 11.5 mph 17.3 mph N/A   Scattered Clouds
7:35 PM 52.0 °F - 38.1 °F 59% 29.85 in 10.0 mi WSW 13.8 mph - N/A   Scattered Clouds
7:55 PM 51.1 °F - 38.3 °F 62% 29.86 in 10.0 mi WSW 9.2 mph - N/A   Scattered Clouds
8:15 PM 50.7 °F - 37.9 °F 62% 29.86 in 10.0 mi WSW 11.5 mph - N/A   Scattered Clouds
8:35 PM 50.7 °F - 37.2 °F 60% 29.87 in 10.0 mi WSW 12.7 mph 18.4 mph N/A   Scattered Clouds
8:55 PM 50.0 °F - 36.7 °F 60% 29.88 in 10.0 mi WSW 12.7 mph 17.3 mph N/A   Clear
9:15 PM 49.1 °F - 36.5 °F 62% 29.89 in 10.0 mi WSW 11.5 mph - N/A   Clear
9:35 PM 48.0 °F - 36.0 °F 63% 29.89 in 10.0 mi WSW 11.5 mph - N/A   Clear
9:55 PM 47.7 °F - 35.2 °F 62% 29.89 in 10.0 mi WSW 10.4 mph - N/A   Scattered Clouds
10:15 PM 47.7 °F - 34.3 °F 60% 29.90 in 10.0 mi WSW 10.4 mph - N/A   Clear
10:35 PM 46.8 °F - 34.0 °F 61% 29.90 in 10.0 mi WSW 12.7 mph 17.3 mph N/A   Clear
10:55 PM 46.4 °F 41.1 °F 34.0 °F 62% 29.91 in 10.0 mi WSW 11.5 mph - N/A   Clear
11:15 PM 45.5 °F 41.3 °F 33.8 °F 64% 29.91 in 10.0 mi WSW 8.1 mph - N/A   Clear
11:35 PM 44.2 °F 39.2 °F 33.8 °F 67% 29.91 in 10.0 mi SW 9.2 mph - N/A   Clear
11:55 PM 43.3 °F 38.6 °F 33.8 °F 69% 29.91 in 10.0 mi WSW 8.1 mph - N/A   Clear